time_stamp(utc),avg(mph),gust(mph),direction(deg),12m_air_temp(f),sonic_u(cm/s),sonic_v(cm/s),sonic_w(cm/s),pressure,2m_air_temp(f),pyranometer(W/m^2)
"2020-07-06 00:00:21+00",13.0,15.0,,,,,,,,
"2020-07-06 00:01:21+00",11.6,14.6,,,,,,,,
"2020-07-06 00:02:21+00",12.8,15.8,,,,,,,,
"2020-07-06 00:04:21+00",15.1,18.1,,,,,,,,
"2020-07-06 00:05:21+00",14.8,16.8,,,,,,,,
"2020-07-06 00:06:21+00",13.8,15.8,,,,,,,,
"2020-07-06 00:07:21+00",14.8,16.8,,,,,,,,
"2020-07-06 00:09:21+00",15.7,16.7,,,,,,,,
"2020-07-06 00:10:21+00",16.0,18.0,,,,,,,,
"2020-07-06 00:11:21+00",15.8,17.8,,,,,,,,
"2020-07-06 00:12:21+00",15.8,18.8,,,,,,,,
"2020-07-06 00:14:21+00",15.6,18.6,,,,,,,,
"2020-07-06 00:15:21+00",15.7,17.7,,,,,,,,
"2020-07-06 00:16:21+00",14.9,16.9,,,,,,,,
"2020-07-06 00:17:21+00",13.8,15.8,,,,,,,,
"2020-07-06 00:19:21+00",15.2,17.2,,,,,,,,
"2020-07-06 00:20:21+00",15.1,17.1,,,,,,,,
"2020-07-06 00:21:21+00",14.7,17.7,,,,,,,,
"2020-07-06 00:22:21+00",14.2,17.2,,,,,,,,
"2020-07-06 00:24:21+00",14.8,17.8,,,,,,,,
"2020-07-06 00:25:21+00",14.6,16.6,,,,,,,,
"2020-07-06 00:26:21+00",13.9,15.9,,,,,,,,
"2020-07-06 00:27:21+00",12.4,15.4,,,,,,,,
"2020-07-06 00:29:21+00",13.1,15.1,,,,,,,,
"2020-07-06 00:30:21+00",12.6,14.6,,,,,,,,
"2020-07-06 00:31:21+00",12.1,13.1,,,,,,,,
"2020-07-06 00:32:21+00",11.0,13.0,,,,,,,,
"2020-07-06 00:34:21+00",12.0,14.0,,,,,,,,
"2020-07-06 00:35:21+00",12.1,15.1,,,,,,,,
"2020-07-06 00:36:21+00",12.1,15.1,,,,,,,,
"2020-07-06 00:37:21+00",12.2,13.2,,,,,,,,
"2020-07-06 00:39:21+00",12.1,13.1,,,,,,,,
"2020-07-06 00:40:21+00",12.0,14.0,,,,,,,,
"2020-07-06 00:41:21+00",12.4,14.4,,,,,,,,
"2020-07-06 00:42:21+00",11.9,13.9,,,,,,,,
"2020-07-06 00:44:21+00",10.5,13.5,,,,,,,,
"2020-07-06 00:45:21+00",9.8,11.8,,,,,,,,
"2020-07-06 00:46:21+00",11.3,13.3,,,,,,,,
"2020-07-06 00:47:21+00",12.1,14.1,,,,,,,,
"2020-07-06 00:49:21+00",10.9,13.9,,,,,,,,
"2020-07-06 00:50:21+00",11.4,13.4,,,,,,,,
"2020-07-06 00:51:21+00",11.3,16.3,,,,,,,,
"2020-07-06 00:52:21+00",11.5,13.5,,,,,,,,
"2020-07-06 00:54:21+00",11.3,13.3,,,,,,,,
"2020-07-06 00:55:21+00",10.8,11.8,,,,,,,,
"2020-07-06 00:56:21+00",10.4,12.4,,,,,,,,
"2020-07-06 00:57:21+00",11.2,13.2,,,,,,,,
"2020-07-06 00:59:21+00",10.6,12.6,,,,,,,,
"2020-07-06 01:00:21+00",11.2,12.2,,,,,,,,
"2020-07-06 01:01:21+00",10.9,11.9,,,,,,,,
"2020-07-06 01:02:21+00",11.1,12.1,,,,,,,,
"2020-07-06 01:04:21+00",10.3,11.3,,,,,,,,
"2020-07-06 01:05:21+00",10.6,12.6,,,,,,,,
"2020-07-06 01:06:21+00",11.4,12.4,,,,,,,,
"2020-07-06 01:07:21+00",10.9,11.9,,,,,,,,
"2020-07-06 01:09:21+00",11.0,13.0,,,,,,,,
"2020-07-06 01:10:21+00",10.5,11.5,,,,,,,,
"2020-07-06 01:11:21+00",9.9,10.9,,,,,,,,
"2020-07-06 01:12:21+00",8.9,9.9,,,,,,,,
"2020-07-06 01:14:21+00",7.2,8.2,,,,,,,,
"2020-07-06 01:15:21+00",7.5,8.5,,,,,,,,
"2020-07-06 01:16:21+00",8.6,9.6,,,,,,,,
"2020-07-06 01:17:21+00",8.7,10.7,,,,,,,,
"2020-07-06 01:19:21+00",9.5,10.5,,,,,,,,
"2020-07-06 01:20:21+00",8.6,9.6,,,,,,,,
"2020-07-06 01:21:21+00",9.3,10.3,,,,,,,,
"2020-07-06 01:22:21+00",8.1,9.1,,,,,,,,
"2020-07-06 01:24:21+00",8.0,10.0,,,,,,,,
"2020-07-06 01:25:21+00",8.3,10.3,,,,,,,,
"2020-07-06 01:26:21+00",7.7,8.7,,,,,,,,
"2020-07-06 01:27:21+00",7.4,8.4,,,,,,,,
"2020-07-06 01:29:21+00",7.0,8.0,,,,,,,,
"2020-07-06 01:30:21+00",7.4,8.4,,,,,,,,
"2020-07-06 01:31:21+00",6.9,7.9,,,,,,,,
"2020-07-06 01:32:21+00",6.5,7.5,,,,,,,,
"2020-07-06 01:34:21+00",6.2,7.2,,,,,,,,
"2020-07-06 01:35:21+00",6.4,7.4,,,,,,,,
"2020-07-06 01:36:21+00",6.8,7.8,,,,,,,,
"2020-07-06 01:37:21+00",6.6,7.6,,,,,,,,
"2020-07-06 01:39:21+00",7.1,8.1,,,,,,,,
"2020-07-06 01:40:21+00",7.2,8.2,,,,,,,,
"2020-07-06 01:41:21+00",7.5,8.5,,,,,,,,
"2020-07-06 01:42:21+00",7.2,8.2,,,,,,,,
"2020-07-06 01:44:21+00",6.8,7.8,,,,,,,,
"2020-07-06 01:45:21+00",6.6,7.6,,,,,,,,
"2020-07-06 01:46:21+00",7.1,7.1,,,,,,,,
"2020-07-06 01:47:21+00",6.2,7.2,,,,,,,,
"2020-07-06 01:49:21+00",5.8,6.8,,,,,,,,
"2020-07-06 01:50:21+00",6.0,7.0,,,,,,,,
"2020-07-06 01:51:21+00",6.1,7.1,,,,,,,,
"2020-07-06 01:52:21+00",6.5,7.5,,,,,,,,
"2020-07-06 01:54:21+00",7.7,8.7,,,,,,,,
"2020-07-06 01:55:21+00",8.0,8.0,,,,,,,,
"2020-07-06 01:56:21+00",8.1,9.1,,,,,,,,
"2020-07-06 01:57:21+00",8.0,9.0,,,,,,,,
"2020-07-06 01:59:21+00",8.2,9.2,,,,,,,,
"2020-07-06 02:00:21+00",8.1,9.1,,,,,,,,
"2020-07-06 02:01:21+00",7.9,8.9,,,,,,,,
"2020-07-06 02:02:21+00",6.2,8.2,,,,,,,,
"2020-07-06 02:04:21+00",4.2,5.2,,,,,,,,
"2020-07-06 02:05:21+00",4.9,5.9,,,,,,,,
"2020-07-06 02:06:21+00",5.4,6.4,,,,,,,,
"2020-07-06 02:07:21+00",5.6,6.6,,,,,,,,
"2020-07-06 02:09:21+00",6.1,6.1,,,,,,,,
"2020-07-06 02:10:21+00",6.2,7.2,,,,,,,,
"2020-07-06 02:11:21+00",6.5,7.5,,,,,,,,
"2020-07-06 02:12:21+00",6.1,7.1,,,,,,,,
"2020-07-06 02:14:21+00",4.3,5.3,,,,,,,,
"2020-07-06 02:15:21+00",5.1,6.1,,,,,,,,
"2020-07-06 02:16:21+00",4.9,5.9,,,,,,,,
"2020-07-06 02:17:21+00",5.5,6.5,,,,,,,,
"2020-07-06 02:19:21+00",6.3,7.3,,,,,,,,
"2020-07-06 02:20:21+00",6.8,7.8,,,,,,,,
"2020-07-06 02:21:21+00",7.3,8.3,,,,,,,,
"2020-07-06 02:22:21+00",7.1,8.1,,,,,,,,
"2020-07-06 02:24:21+00",5.8,6.8,,,,,,,,
"2020-07-06 02:25:21+00",5.6,6.6,,,,,,,,
"2020-07-06 02:26:21+00",6.1,6.1,,,,,,,,
"2020-07-06 02:27:21+00",6.5,7.5,,,,,,,,
"2020-07-06 02:29:21+00",6.4,7.4,,,,,,,,
"2020-07-06 02:30:21+00",6.2,7.2,,,,,,,,
"2020-07-06 02:31:21+00",6.3,7.3,,,,,,,,
"2020-07-06 02:32:21+00",6.1,6.1,,,,,,,,
"2020-07-06 02:34:21+00",6.3,7.3,,,,,,,,
"2020-07-06 02:35:21+00",6.5,7.5,,,,,,,,
"2020-07-06 02:36:21+00",7.4,8.4,,,,,,,,
"2020-07-06 02:37:21+00",7.2,8.2,,,,,,,,
"2020-07-06 02:39:21+00",6.6,7.6,,,,,,,,
"2020-07-06 02:40:21+00",6.7,7.7,,,,,,,,
"2020-07-06 02:41:21+00",7.1,7.1,,,,,,,,
"2020-07-06 02:42:21+00",6.8,7.8,,,,,,,,
"2020-07-06 02:44:21+00",6.4,7.4,,,,,,,,
"2020-07-06 02:45:21+00",6.5,7.5,,,,,,,,
"2020-07-06 02:46:21+00",6.1,7.1,,,,,,,,
"2020-07-06 02:47:21+00",5.9,6.9,,,,,,,,
"2020-07-06 02:49:21+00",6.8,8.8,,,,,,,,
"2020-07-06 02:50:21+00",6.8,7.8,,,,,,,,
"2020-07-06 02:51:21+00",7.1,8.1,,,,,,,,
"2020-07-06 02:52:21+00",7.2,8.2,,,,,,,,
"2020-07-06 02:54:21+00",7.1,8.1,,,,,,,,
"2020-07-06 02:55:21+00",6.7,7.7,,,,,,,,
"2020-07-06 02:56:21+00",6.7,7.7,,,,,,,,
"2020-07-06 02:57:21+00",6.9,7.9,,,,,,,,
"2020-07-06 02:59:21+00",7.5,8.5,,,,,,,,
"2020-07-06 03:00:21+00",7.8,8.8,,,,,,,,
"2020-07-06 03:01:21+00",7.7,8.7,,,,,,,,
"2020-07-06 03:02:21+00",8.0,9.0,,,,,,,,
"2020-07-06 03:04:21+00",8.3,9.3,,,,,,,,
"2020-07-06 03:05:21+00",8.5,9.5,,,,,,,,
"2020-07-06 03:06:21+00",8.7,9.7,,,,,,,,
"2020-07-06 03:07:21+00",8.5,9.5,,,,,,,,
"2020-07-06 03:09:21+00",8.0,9.0,,,,,,,,
"2020-07-06 03:10:21+00",8.0,9.0,,,,,,,,
"2020-07-06 03:11:21+00",7.9,8.9,,,,,,,,
"2020-07-06 03:12:21+00",7.2,8.2,,,,,,,,
"2020-07-06 03:14:21+00",8.4,10.4,,,,,,,,
"2020-07-06 03:15:21+00",9.1,11.1,,,,,,,,
"2020-07-06 03:16:21+00",9.1,10.1,,,,,,,,
"2020-07-06 03:17:21+00",9.5,10.5,,,,,,,,
"2020-07-06 03:19:21+00",9.8,10.8,,,,,,,,
"2020-07-06 03:20:21+00",9.5,10.5,,,,,,,,
"2020-07-06 03:21:21+00",9.3,10.3,,,,,,,,
"2020-07-06 03:22:21+00",8.7,9.7,,,,,,,,
"2020-07-06 03:24:21+00",8.6,9.6,,,,,,,,
"2020-07-06 03:25:21+00",8.2,9.2,,,,,,,,
"2020-07-06 03:26:21+00",7.9,8.9,,,,,,,,
"2020-07-06 03:27:21+00",7.8,8.8,,,,,,,,
"2020-07-06 03:30:21+00",7.3,8.3,,,,,,,,
"2020-07-06 05:22:21+00",8.6,9.6,,,,,,,,
"2020-07-06 05:24:21+00",8.3,10.3,,,,,,,,
"2020-07-06 05:25:21+00",8.1,9.1,,,,,,,,
"2020-07-06 05:26:21+00",8.3,9.3,,,,,,,,
"2020-07-06 05:27:21+00",8.2,9.2,,,,,,,,
"2020-07-06 05:29:21+00",7.5,8.5,,,,,,,,
"2020-07-06 05:30:21+00",7.5,8.5,,,,,,,,
"2020-07-06 05:31:21+00",8.1,9.1,,,,,,,,
"2020-07-06 05:32:21+00",8.1,9.1,,,,,,,,
"2020-07-06 05:34:21+00",8.5,9.5,,,,,,,,
"2020-07-06 05:35:21+00",8.6,9.6,,,,,,,,
"2020-07-06 05:36:21+00",8.6,9.6,,,,,,,,
"2020-07-06 05:37:21+00",8.2,9.2,,,,,,,,
"2020-07-06 05:39:21+00",8.2,9.2,,,,,,,,
"2020-07-06 05:40:21+00",7.9,8.9,,,,,,,,
"2020-07-06 05:41:21+00",7.5,8.5,,,,,,,,
"2020-07-06 05:42:21+00",7.6,8.6,,,,,,,,
"2020-07-06 05:44:21+00",8.7,10.7,,,,,,,,
"2020-07-06 05:45:21+00",9.0,10.0,,,,,,,,
"2020-07-06 05:46:21+00",8.4,9.4,,,,,,,,
"2020-07-06 05:47:21+00",8.6,9.6,,,,,,,,
"2020-07-06 05:49:21+00",8.3,10.3,,,,,,,,
"2020-07-06 05:50:21+00",8.7,10.7,,,,,,,,
"2020-07-06 05:51:21+00",8.6,9.6,,,,,,,,
"2020-07-06 05:52:21+00",8.4,9.4,,,,,,,,
"2020-07-06 05:54:21+00",8.6,9.6,,,,,,,,
"2020-07-06 05:55:21+00",8.4,8.4,,,,,,,,
"2020-07-06 05:56:21+00",10.0,11.0,,,,,,,,
"2020-07-06 05:57:21+00",9.0,10.0,,,,,,,,
"2020-07-06 05:59:21+00",9.7,11.7,,,,,,,,
"2020-07-06 06:00:21+00",9.4,11.4,,,,,,,,
"2020-07-06 06:01:21+00",9.5,10.5,,,,,,,,
"2020-07-06 06:02:21+00",10.0,12.0,,,,,,,,
"2020-07-06 06:04:21+00",8.1,9.1,,,,,,,,
"2020-07-06 06:05:21+00",8.8,9.8,,,,,,,,
"2020-07-06 06:06:21+00",8.0,9.0,,,,,,,,
"2020-07-06 06:07:21+00",9.1,10.1,,,,,,,,
"2020-07-06 06:09:21+00",8.6,9.6,,,,,,,,
"2020-07-06 06:10:21+00",8.7,9.7,,,,,,,,
"2020-07-06 06:11:21+00",9.3,10.3,,,,,,,,
"2020-07-06 06:12:21+00",9.8,10.8,,,,,,,,
"2020-07-06 06:14:21+00",10.6,12.6,,,,,,,,
"2020-07-06 06:15:21+00",10.8,12.8,,,,,,,,
"2020-07-06 06:16:21+00",10.7,11.7,,,,,,,,
"2020-07-06 06:17:21+00",10.8,12.8,,,,,,,,
"2020-07-06 06:19:21+00",10.4,12.4,,,,,,,,
"2020-07-06 06:20:21+00",9.9,11.9,,,,,,,,
"2020-07-06 06:21:21+00",9.2,11.2,,,,,,,,
"2020-07-06 06:22:21+00",9.6,10.6,,,,,,,,
"2020-07-06 06:24:21+00",8.8,9.8,,,,,,,,
"2020-07-06 06:25:21+00",8.7,9.7,,,,,,,,
"2020-07-06 06:26:21+00",7.9,8.9,,,,,,,,
"2020-07-06 06:27:21+00",7.6,9.6,,,,,,,,
"2020-07-06 06:29:21+00",7.8,9.8,,,,,,,,
"2020-07-06 06:30:21+00",8.6,10.6,,,,,,,,
"2020-07-06 06:31:21+00",8.6,9.6,,,,,,,,
"2020-07-06 06:32:21+00",8.8,9.8,,,,,,,,
"2020-07-06 06:34:21+00",8.9,9.9,,,,,,,,
"2020-07-06 06:35:21+00",9.2,11.2,,,,,,,,
"2020-07-06 06:36:21+00",8.9,10.9,,,,,,,,
"2020-07-06 06:37:21+00",9.8,10.8,,,,,,,,
"2020-07-06 06:39:21+00",10.0,11.0,,,,,,,,
"2020-07-06 06:40:21+00",9.6,11.6,,,,,,,,
"2020-07-06 06:41:21+00",10.1,12.1,,,,,,,,
"2020-07-06 06:42:21+00",9.9,11.9,,,,,,,,
"2020-07-06 06:44:21+00",9.4,12.4,,,,,,,,
"2020-07-06 06:45:21+00",9.9,10.9,,,,,,,,
"2020-07-06 06:46:21+00",10.0,11.0,,,,,,,,
"2020-07-06 06:47:21+00",10.6,11.6,,,,,,,,
"2020-07-06 06:49:21+00",10.4,11.4,,,,,,,,
"2020-07-06 06:50:21+00",10.1,12.1,,,,,,,,
"2020-07-06 06:51:21+00",10.2,12.2,,,,,,,,
"2020-07-06 06:52:21+00",10.1,12.1,,,,,,,,
"2020-07-06 06:54:21+00",10.2,12.2,,,,,,,,
"2020-07-06 06:55:21+00",9.6,10.6,,,,,,,,
"2020-07-06 06:56:21+00",8.8,10.8,,,,,,,,
"2020-07-06 06:57:21+00",10.5,12.5,,,,,,,,
"2020-07-06 06:59:21+00",9.4,10.4,,,,,,,,
"2020-07-06 07:00:21+00",8.8,9.8,,,,,,,,
"2020-07-06 07:01:21+00",9.1,10.1,,,,,,,,
"2020-07-06 07:02:21+00",9.3,10.3,,,,,,,,
"2020-07-06 07:04:21+00",9.5,11.5,,,,,,,,
"2020-07-06 07:05:21+00",9.0,11.0,,,,,,,,
"2020-07-06 07:06:21+00",9.9,10.9,,,,,,,,
"2020-07-06 07:07:21+00",10.1,11.1,,,,,,,,
"2020-07-06 07:09:21+00",9.2,10.2,,,,,,,,
"2020-07-06 07:10:21+00",9.5,11.5,,,,,,,,
"2020-07-06 07:11:21+00",9.1,11.1,,,,,,,,
"2020-07-06 07:12:21+00",9.9,10.9,,,,,,,,
"2020-07-06 07:14:21+00",9.6,11.6,,,,,,,,
"2020-07-06 07:15:21+00",10.1,12.1,,,,,,,,
"2020-07-06 07:16:21+00",10.6,12.6,,,,,,,,
"2020-07-06 07:17:21+00",10.5,12.5,,,,,,,,
"2020-07-06 07:19:21+00",10.0,11.0,,,,,,,,
"2020-07-06 07:20:21+00",10.5,12.5,,,,,,,,
"2020-07-06 07:21:21+00",10.8,11.8,,,,,,,,
"2020-07-06 07:22:21+00",10.9,12.9,,,,,,,,
"2020-07-06 07:24:21+00",10.4,11.4,,,,,,,,
"2020-07-06 07:25:21+00",9.9,11.9,,,,,,,,
"2020-07-06 07:26:21+00",10.4,12.4,,,,,,,,
"2020-07-06 07:27:21+00",10.5,11.5,,,,,,,,
"2020-07-06 07:29:21+00",10.6,12.6,,,,,,,,
"2020-07-06 07:30:21+00",10.2,11.2,,,,,,,,
"2020-07-06 07:31:21+00",10.1,12.1,,,,,,,,
"2020-07-06 07:32:21+00",9.9,11.9,,,,,,,,
"2020-07-06 07:34:21+00",10.5,13.5,,,,,,,,
"2020-07-06 07:35:21+00",11.6,13.6,,,,,,,,
"2020-07-06 07:36:21+00",11.0,13.0,,,,,,,,
"2020-07-06 07:37:21+00",10.3,11.3,,,,,,,,
"2020-07-06 07:39:21+00",10.3,12.3,,,,,,,,
"2020-07-06 07:40:21+00",10.4,11.4,,,,,,,,
"2020-07-06 07:41:21+00",10.4,12.4,,,,,,,,
"2020-07-06 07:42:21+00",9.6,11.6,,,,,,,,
"2020-07-06 07:44:21+00",10.0,12.0,,,,,,,,
"2020-07-06 07:45:21+00",9.8,10.8,,,,,,,,
"2020-07-06 07:46:21+00",9.7,11.7,,,,,,,,
"2020-07-06 07:47:21+00",10.9,13.9,,,,,,,,
"2020-07-06 07:49:21+00",9.5,11.5,,,,,,,,
"2020-07-06 07:50:21+00",11.6,12.6,,,,,,,,
"2020-07-06 07:51:21+00",11.6,13.6,,,,,,,,
"2020-07-06 07:52:21+00",12.4,14.4,,,,,,,,
"2020-07-06 07:54:21+00",12.0,14.0,,,,,,,,
"2020-07-06 07:55:21+00",12.4,13.4,,,,,,,,
"2020-07-06 07:56:21+00",12.5,13.5,,,,,,,,
"2020-07-06 07:57:21+00",12.0,13.0,,,,,,,,
"2020-07-06 07:59:21+00",11.9,13.9,,,,,,,,
"2020-07-06 08:00:21+00",11.8,13.8,,,,,,,,
"2020-07-06 08:01:21+00",10.6,12.6,,,,,,,,
"2020-07-06 08:02:21+00",11.0,13.0,,,,,,,,
"2020-07-06 08:04:21+00",11.5,13.5,,,,,,,,
"2020-07-06 08:05:21+00",12.6,14.6,,,,,,,,
"2020-07-06 08:06:21+00",11.0,12.0,,,,,,,,
"2020-07-06 08:07:21+00",11.9,13.9,,,,,,,,
"2020-07-06 08:09:21+00",11.4,13.4,,,,,,,,
"2020-07-06 08:10:21+00",11.7,12.7,,,,,,,,
"2020-07-06 08:11:21+00",10.6,12.6,,,,,,,,
"2020-07-06 08:12:21+00",11.2,14.2,,,,,,,,
"2020-07-06 08:14:21+00",11.6,12.6,,,,,,,,
"2020-07-06 08:15:21+00",10.7,12.7,,,,,,,,
"2020-07-06 08:16:21+00",9.7,10.7,,,,,,,,
"2020-07-06 08:17:21+00",9.6,11.6,,,,,,,,
"2020-07-06 08:19:21+00",9.9,11.9,,,,,,,,
"2020-07-06 08:20:21+00",10.9,11.9,,,,,,,,
"2020-07-06 08:21:21+00",9.7,10.7,,,,,,,,
"2020-07-06 08:22:21+00",10.2,11.2,,,,,,,,
"2020-07-06 08:24:21+00",10.0,12.0,,,,,,,,
"2020-07-06 08:25:21+00",10.6,12.6,,,,,,,,
"2020-07-06 08:26:21+00",9.7,10.7,,,,,,,,
"2020-07-06 08:27:21+00",9.4,10.4,,,,,,,,
"2020-07-06 08:29:21+00",10.0,12.0,,,,,,,,
"2020-07-06 08:30:21+00",10.1,12.1,,,,,,,,
"2020-07-06 08:31:21+00",10.4,11.4,,,,,,,,
"2020-07-06 08:32:21+00",10.3,12.3,,,,,,,,
"2020-07-06 08:34:21+00",11.6,13.6,,,,,,,,
"2020-07-06 08:35:21+00",11.2,13.2,,,,,,,,
"2020-07-06 08:36:21+00",9.8,10.8,,,,,,,,
"2020-07-06 08:37:21+00",9.6,11.6,,,,,,,,
"2020-07-06 08:39:21+00",10.8,11.8,,,,,,,,
"2020-07-06 08:40:21+00",10.8,13.8,,,,,,,,
"2020-07-06 08:41:21+00",10.9,12.9,,,,,,,,
"2020-07-06 08:42:21+00",11.1,12.1,,,,,,,,
"2020-07-06 08:44:21+00",9.0,10.0,,,,,,,,
"2020-07-06 08:45:21+00",8.4,9.4,,,,,,,,
"2020-07-06 08:46:21+00",9.5,11.5,,,,,,,,
"2020-07-06 08:47:21+00",10.1,11.1,,,,,,,,
"2020-07-06 08:49:21+00",9.4,12.4,,,,,,,,
"2020-07-06 08:50:21+00",9.9,11.9,,,,,,,,
"2020-07-06 08:51:21+00",9.0,11.0,,,,,,,,
"2020-07-06 08:52:21+00",9.5,10.5,,,,,,,,
"2020-07-06 08:54:21+00",9.9,11.9,,,,,,,,
"2020-07-06 08:55:21+00",10.6,12.6,,,,,,,,
"2020-07-06 08:56:21+00",10.6,11.6,,,,,,,,
"2020-07-06 08:57:21+00",10.7,11.7,,,,,,,,
"2020-07-06 08:59:21+00",9.1,10.1,,,,,,,,
"2020-07-06 09:00:21+00",8.9,9.9,,,,,,,,
"2020-07-06 09:01:21+00",8.0,9.0,,,,,,,,
"2020-07-06 09:02:21+00",6.6,7.6,,,,,,,,
"2020-07-06 09:04:21+00",6.2,7.2,,,,,,,,
"2020-07-06 09:05:21+00",6.0,7.0,,,,,,,,
"2020-07-06 09:06:21+00",5.6,6.6,,,,,,,,
"2020-07-06 09:07:21+00",6.8,7.8,,,,,,,,
"2020-07-06 09:09:21+00",6.6,8.6,,,,,,,,
"2020-07-06 09:10:21+00",8.0,10.0,,,,,,,,
"2020-07-06 09:11:21+00",7.2,9.2,,,,,,,,
"2020-07-06 09:12:21+00",8.0,9.0,,,,,,,,
"2020-07-06 09:14:21+00",7.7,8.7,,,,,,,,
"2020-07-06 09:15:21+00",7.8,9.8,,,,,,,,
"2020-07-06 09:16:21+00",7.7,9.7,,,,,,,,
"2020-07-06 09:17:21+00",9.0,11.0,,,,,,,,
"2020-07-06 09:19:21+00",10.7,12.7,,,,,,,,
"2020-07-06 09:20:21+00",9.2,11.2,,,,,,,,
"2020-07-06 09:21:21+00",9.1,11.1,,,,,,,,
"2020-07-06 09:22:21+00",10.5,12.5,,,,,,,,
"2020-07-06 09:24:21+00",10.0,13.0,,,,,,,,
"2020-07-06 09:25:21+00",10.9,13.9,,,,,,,,
"2020-07-06 09:26:21+00",10.6,12.6,,,,,,,,
"2020-07-06 09:27:21+00",10.2,11.2,,,,,,,,
"2020-07-06 09:29:21+00",11.6,12.6,,,,,,,,
"2020-07-06 09:30:21+00",9.9,11.9,,,,,,,,
"2020-07-06 09:31:21+00",9.7,12.7,,,,,,,,
"2020-07-06 09:32:21+00",8.9,11.9,,,,,,,,
"2020-07-06 09:34:21+00",10.4,13.4,,,,,,,,
"2020-07-06 09:35:21+00",9.7,10.7,,,,,,,,
"2020-07-06 09:36:21+00",11.1,13.1,,,,,,,,
"2020-07-06 09:37:21+00",11.5,12.5,,,,,,,,
"2020-07-06 09:39:21+00",10.4,12.4,,,,,,,,
"2020-07-06 09:40:21+00",10.7,11.7,,,,,,,,
"2020-07-06 09:41:21+00",10.8,12.8,,,,,,,,
"2020-07-06 09:42:21+00",11.0,13.0,,,,,,,,
"2020-07-06 09:44:21+00",10.7,11.7,,,,,,,,
"2020-07-06 09:45:21+00",11.3,12.3,,,,,,,,
"2020-07-06 09:46:21+00",11.6,13.6,,,,,,,,
"2020-07-06 09:47:21+00",10.9,12.9,,,,,,,,
"2020-07-06 09:49:21+00",10.8,13.8,,,,,,,,
"2020-07-06 09:50:21+00",10.6,12.6,,,,,,,,
"2020-07-06 09:51:21+00",10.1,12.1,,,,,,,,
"2020-07-06 09:52:21+00",10.1,12.1,,,,,,,,
"2020-07-06 09:54:21+00",10.5,12.5,,,,,,,,
"2020-07-06 09:55:21+00",10.3,11.3,,,,,,,,
"2020-07-06 09:56:21+00",10.3,12.3,,,,,,,,
"2020-07-06 09:57:21+00",11.1,13.1,,,,,,,,
"2020-07-06 09:59:21+00",10.2,12.2,,,,,,,,
"2020-07-06 10:00:21+00",11.5,12.5,,,,,,,,
"2020-07-06 10:01:21+00",11.4,12.4,,,,,,,,
"2020-07-06 10:02:21+00",10.8,11.8,,,,,,,,
"2020-07-06 10:04:21+00",9.8,10.8,,,,,,,,
"2020-07-06 10:05:21+00",9.1,11.1,,,,,,,,
"2020-07-06 10:06:21+00",9.5,11.5,,,,,,,,
"2020-07-06 10:07:21+00",8.6,10.6,,,,,,,,
"2020-07-06 10:09:21+00",9.4,11.4,,,,,,,,
"2020-07-06 10:10:21+00",9.5,11.5,,,,,,,,
"2020-07-06 10:11:21+00",8.7,10.7,,,,,,,,
"2020-07-06 10:12:21+00",8.8,9.8,,,,,,,,
"2020-07-06 10:14:21+00",9.0,11.0,,,,,,,,
"2020-07-06 10:15:21+00",8.9,9.9,,,,,,,,
"2020-07-06 10:16:21+00",8.6,10.6,,,,,,,,
"2020-07-06 10:17:21+00",9.3,11.3,,,,,,,,
"2020-07-06 10:19:21+00",8.6,9.6,,,,,,,,
"2020-07-06 10:20:21+00",7.7,9.7,,,,,,,,
"2020-07-06 10:21:21+00",7.8,9.8,,,,,,,,
"2020-07-06 10:22:21+00",7.7,9.7,,,,,,,,
"2020-07-06 10:24:21+00",8.5,10.5,,,,,,,,
"2020-07-06 10:25:21+00",7.9,9.9,,,,,,,,
"2020-07-06 10:26:21+00",8.4,9.4,,,,,,,,
"2020-07-06 10:27:21+00",8.9,10.9,,,,,,,,
"2020-07-06 10:29:21+00",9.2,11.2,,,,,,,,
"2020-07-06 10:30:21+00",9.6,11.6,,,,,,,,
"2020-07-06 10:31:21+00",9.1,10.1,,,,,,,,
"2020-07-06 10:32:21+00",8.0,9.0,,,,,,,,
"2020-07-06 10:34:21+00",8.5,9.5,,,,,,,,
"2020-07-06 10:35:21+00",8.9,10.9,,,,,,,,
"2020-07-06 10:36:21+00",8.7,9.7,,,,,,,,
"2020-07-06 10:37:21+00",8.3,10.3,,,,,,,,
"2020-07-06 10:39:21+00",7.2,8.2,,,,,,,,
"2020-07-06 10:40:21+00",9.9,11.9,,,,,,,,
"2020-07-06 10:41:21+00",9.1,10.1,,,,,,,,
"2020-07-06 10:42:21+00",8.6,10.6,,,,,,,,
"2020-07-06 10:44:21+00",8.9,9.9,,,,,,,,
"2020-07-06 10:45:21+00",9.3,11.3,,,,,,,,
"2020-07-06 10:46:21+00",9.7,10.7,,,,,,,,
"2020-07-06 10:47:21+00",8.6,10.6,,,,,,,,
"2020-07-06 10:49:21+00",10.0,11.0,,,,,,,,
"2020-07-06 10:50:21+00",9.6,11.6,,,,,,,,
"2020-07-06 10:51:21+00",9.6,10.6,,,,,,,,
"2020-07-06 10:52:21+00",8.1,10.1,,,,,,,,
"2020-07-06 10:54:21+00",9.5,10.5,,,,,,,,
"2020-07-06 10:55:21+00",10.1,12.1,,,,,,,,
"2020-07-06 10:56:21+00",10.3,11.3,,,,,,,,
"2020-07-06 10:57:21+00",10.1,11.1,,,,,,,,
"2020-07-06 10:59:21+00",10.0,11.0,,,,,,,,
"2020-07-06 11:00:21+00",9.6,10.6,,,,,,,,
"2020-07-06 11:01:21+00",9.2,10.2,,,,,,,,
"2020-07-06 11:02:21+00",9.2,11.2,,,,,,,,
"2020-07-06 11:04:21+00",8.4,10.4,,,,,,,,
"2020-07-06 11:05:21+00",8.2,11.2,,,,,,,,
"2020-07-06 11:06:21+00",8.8,10.8,,,,,,,,
"2020-07-06 11:07:21+00",9.3,10.3,,,,,,,,
"2020-07-06 11:09:21+00",8.6,10.6,,,,,,,,
"2020-07-06 11:10:21+00",8.7,10.7,,,,,,,,
"2020-07-06 11:11:21+00",8.4,10.4,,,,,,,,
"2020-07-06 11:12:21+00",9.0,10.0,,,,,,,,
"2020-07-06 11:14:21+00",10.2,11.2,,,,,,,,
"2020-07-06 11:15:21+00",8.3,9.3,,,,,,,,
"2020-07-06 11:16:21+00",9.4,10.4,,,,,,,,
"2020-07-06 11:17:21+00",10.2,11.2,,,,,,,,
"2020-07-06 11:19:21+00",10.8,12.8,,,,,,,,
"2020-07-06 11:20:21+00",9.1,11.1,,,,,,,,
"2020-07-06 11:21:21+00",10.5,12.5,,,,,,,,
"2020-07-06 11:22:21+00",10.9,12.9,,,,,,,,
"2020-07-06 11:24:21+00",9.8,11.8,,,,,,,,
"2020-07-06 11:25:21+00",11.6,12.6,,,,,,,,
"2020-07-06 11:26:21+00",9.7,11.7,,,,,,,,
"2020-07-06 11:27:21+00",10.4,12.4,,,,,,,,
"2020-07-06 11:29:21+00",9.5,10.5,,,,,,,,
"2020-07-06 11:30:21+00",10.2,11.2,,,,,,,,
"2020-07-06 11:31:21+00",9.6,11.6,,,,,,,,
"2020-07-06 11:32:21+00",11.5,13.5,,,,,,,,
"2020-07-06 11:34:21+00",10.0,11.0,,,,,,,,
"2020-07-06 11:35:21+00",10.4,11.4,,,,,,,,
"2020-07-06 11:36:21+00",11.2,13.2,,,,,,,,
"2020-07-06 11:37:21+00",9.5,11.5,,,,,,,,
"2020-07-06 11:39:21+00",9.8,11.8,,,,,,,,
"2020-07-06 11:40:21+00",10.7,11.7,,,,,,,,
"2020-07-06 11:41:21+00",9.7,11.7,,,,,,,,
"2020-07-06 11:42:21+00",9.8,11.8,,,,,,,,
"2020-07-06 11:44:21+00",9.9,10.9,,,,,,,,
"2020-07-06 11:45:21+00",8.6,10.6,,,,,,,,
"2020-07-06 11:46:21+00",9.2,10.2,,,,,,,,
"2020-07-06 11:47:21+00",10.2,11.2,,,,,,,,
"2020-07-06 11:49:21+00",10.5,11.5,,,,,,,,
"2020-07-06 11:50:21+00",10.6,12.6,,,,,,,,
"2020-07-06 11:51:21+00",10.0,12.0,,,,,,,,
"2020-07-06 11:52:21+00",9.3,10.3,,,,,,,,
"2020-07-06 11:54:21+00",9.7,10.7,,,,,,,,
"2020-07-06 11:55:21+00",10.6,11.6,,,,,,,,
"2020-07-06 11:56:21+00",10.3,11.3,,,,,,,,
"2020-07-06 11:57:21+00",10.5,12.5,,,,,,,,
"2020-07-06 11:59:21+00",9.7,10.7,,,,,,,,
"2020-07-06 12:00:21+00",10.4,12.4,,,,,,,,
"2020-07-06 12:01:21+00",11.4,12.4,,,,,,,,
"2020-07-06 12:02:21+00",10.8,11.8,,,,,,,,
"2020-07-06 12:04:21+00",10.3,12.3,,,,,,,,
"2020-07-06 12:05:21+00",9.0,10.0,,,,,,,,
"2020-07-06 12:06:21+00",9.4,11.4,,,,,,,,
"2020-07-06 12:07:21+00",9.6,11.6,,,,,,,,
"2020-07-06 12:09:21+00",10.1,12.1,,,,,,,,
"2020-07-06 12:10:21+00",10.4,12.4,,,,,,,,
"2020-07-06 12:11:21+00",9.6,11.6,,,,,,,,
"2020-07-06 12:12:21+00",9.6,10.6,,,,,,,,
"2020-07-06 12:14:21+00",10.1,12.1,,,,,,,,
"2020-07-06 12:15:21+00",10.1,11.1,,,,,,,,
"2020-07-06 12:16:21+00",9.5,11.5,,,,,,,,
"2020-07-06 12:17:21+00",9.2,10.2,,,,,,,,
"2020-07-06 12:19:21+00",7.7,8.7,,,,,,,,
"2020-07-06 12:20:21+00",9.5,10.5,,,,,,,,
"2020-07-06 12:21:21+00",10.0,11.0,,,,,,,,
"2020-07-06 12:22:21+00",9.7,10.7,,,,,,,,
"2020-07-06 12:24:21+00",9.3,10.3,,,,,,,,
"2020-07-06 12:25:21+00",9.7,11.7,,,,,,,,
"2020-07-06 12:26:21+00",9.7,10.7,,,,,,,,
"2020-07-06 12:27:21+00",9.4,10.4,,,,,,,,
"2020-07-06 12:29:21+00",9.6,10.6,,,,,,,,
"2020-07-06 12:30:21+00",9.9,10.9,,,,,,,,
"2020-07-06 12:31:21+00",9.3,10.3,,,,,,,,
"2020-07-06 12:32:21+00",9.6,10.6,,,,,,,,
"2020-07-06 12:34:21+00",8.7,10.7,,,,,,,,
"2020-07-06 12:35:21+00",8.5,9.5,,,,,,,,
"2020-07-06 12:36:21+00",8.6,9.6,,,,,,,,
"2020-07-06 12:37:21+00",8.7,9.7,,,,,,,,
"2020-07-06 12:39:21+00",7.7,8.7,,,,,,,,
"2020-07-06 12:40:21+00",7.2,8.2,,,,,,,,
"2020-07-06 12:41:21+00",8.5,9.5,,,,,,,,
"2020-07-06 12:42:21+00",7.6,8.6,,,,,,,,
"2020-07-06 12:44:21+00",7.7,8.7,,,,,,,,
"2020-07-06 12:45:21+00",8.4,9.4,,,,,,,,
"2020-07-06 12:46:21+00",9.0,10.0,,,,,,,,
"2020-07-06 12:47:21+00",8.7,10.7,,,,,,,,
"2020-07-06 12:49:21+00",9.0,10.0,,,,,,,,
"2020-07-06 12:50:21+00",7.5,9.5,,,,,,,,
"2020-07-06 12:51:21+00",8.2,10.2,,,,,,,,
"2020-07-06 12:52:21+00",8.3,9.3,,,,,,,,
"2020-07-06 12:54:21+00",9.0,10.0,,,,,,,,
"2020-07-06 12:55:21+00",7.7,9.7,,,,,,,,
"2020-07-06 12:56:21+00",7.5,8.5,,,,,,,,
"2020-07-06 12:57:21+00",7.4,8.4,,,,,,,,
"2020-07-06 12:59:21+00",6.6,7.6,,,,,,,,
"2020-07-06 13:00:21+00",6.7,7.7,,,,,,,,
"2020-07-06 13:01:21+00",7.3,8.3,,,,,,,,
"2020-07-06 13:02:21+00",6.3,7.3,,,,,,,,
"2020-07-06 13:04:21+00",6.7,7.7,,,,,,,,
"2020-07-06 13:05:21+00",6.7,7.7,,,,,,,,
"2020-07-06 13:06:21+00",6.6,7.6,,,,,,,,
"2020-07-06 13:07:21+00",4.8,5.8,,,,,,,,
"2020-07-06 13:09:21+00",6.3,7.3,,,,,,,,
"2020-07-06 13:10:21+00",5.7,6.7,,,,,,,,
"2020-07-06 13:11:21+00",6.9,7.9,,,,,,,,
"2020-07-06 13:12:21+00",7.9,8.9,,,,,,,,
"2020-07-06 13:14:21+00",7.0,8.0,,,,,,,,
"2020-07-06 13:15:21+00",5.9,6.9,,,,,,,,
"2020-07-06 13:16:21+00",5.4,6.4,,,,,,,,
"2020-07-06 13:17:21+00",5.8,6.8,,,,,,,,
"2020-07-06 13:19:21+00",6.8,7.8,,,,,,,,
"2020-07-06 13:20:21+00",5.7,7.7,,,,,,,,
"2020-07-06 13:21:21+00",7.5,8.5,,,,,,,,
"2020-07-06 13:22:21+00",6.7,7.7,,,,,,,,
"2020-07-06 13:24:21+00",6.2,7.2,,,,,,,,
"2020-07-06 13:25:21+00",7.4,8.4,,,,,,,,
"2020-07-06 13:26:21+00",7.0,8.0,,,,,,,,
"2020-07-06 13:27:21+00",7.2,8.2,,,,,,,,
"2020-07-06 13:29:21+00",7.4,8.4,,,,,,,,
"2020-07-06 13:30:21+00",6.5,8.5,,,,,,,,
"2020-07-06 13:31:21+00",6.9,7.9,,,,,,,,
"2020-07-06 13:32:21+00",6.4,7.4,,,,,,,,
"2020-07-06 13:34:21+00",8.0,9.0,,,,,,,,
"2020-07-06 13:35:21+00",7.6,8.6,,,,,,,,
"2020-07-06 13:36:21+00",7.8,9.8,,,,,,,,
"2020-07-06 13:37:21+00",7.1,8.1,,,,,,,,
"2020-07-06 13:39:21+00",8.6,9.6,,,,,,,,
"2020-07-06 13:40:21+00",8.0,9.0,,,,,,,,
"2020-07-06 13:41:21+00",8.3,10.3,,,,,,,,